Погода в Кировограде

Погода в Кировограде : погода сейчас, прогноз погоды и архив. Всё, что Вы хотите узнать о погоде в Кировограде!

Хотите узнать прогноз погоды в Кировограде? Тогда Вам сюда: Погода в Кировограде

Поиск расширенной информации на нашем сайте:

Другие новости

Новости СМИ2

Главная страница сайта

Новости сайта

03.07.2017

Напоминаем, что на нашем специализированном сайте Метеоцентр.Азия вы можете получить высокодетализированные автоматические прогнозы погоды по пунктам России, СНГ и мира в авиационном формате (включающие направление и скорость ветра, видимость, явления погоды, количество и форму облачности, нижнюю и верхнюю границу облачности).


Погода в Кировограде - сегодня

Время (UTC), дата Ветер
(°,м/с) 
Видим.   Явления Облачность Т
(°С)
Тd
(°С)
f(%) Тe
(°С)
Pmin
(гПа)
dP
(гПа)
Po
(мм)
O2
(г/м3)
Тmin Tmax R s Состояние
почвы
15 12.10.18 060 (СВ) 20000 м    ясно 
+15 +0 36 +15  1032.8  0.2  759  290           
18 12.10.18 070 (В) 10 км    ясно 
+11.1 +1.3 51 +11  1033.7  0.6  760  294           
21 12.10.18 060 (СВ) 10 км    ясно 
+9 +1.1 58 +8  1034.2  0.4  760  296           
00 13.10.18 тихо ()   10 км    ясно 
+5.3 -0.3 67 +5  1034.5  760  300           
03 13.10.18 тихо ()   10 км    ясно 
+2.8 +0.7 86 +3  1034.7  760  303           
06 13.10.18 тихо ()   20000 м    ясно 
+5.4 +2.7 83 +5  1035.2  0.7  760  300  +1.4         
09 13.10.18 080 (В) 20000 м    ясно 
+15.5 -1.3 32 +15  1034.3  -0.2  760  290           
12 13.10.18 090 (В) 20000 м    ясно 
+18.5 -1.4 26 +19  1032.4  -1.6  759  287           
15 13.10.18 060 (СВ) 20000 м    ясно 
+16.1 -0.5 32 +16  1032  -0.6  759  289           
18 13.10.18 020 (С) 10 км    ясно 
+10.2 +0.9 52 +11  1032.2  -0.2  758  294    +18.8       
21 13.10.18 310 (СЗ) 10 км    ясно 
+7.2 +1.5 67 +7  1031.8  -0.6  758  297           
00 14.10.18 300 (СЗ) 10 км    ясно 
+4.8 +0.6 74 +4  1032.5  0.5  758  300           
03 14.10.18 310 (СЗ) 10 км    ясно 
+2 +0.7 91 +1  1032.7  758  303           
06 14.10.18 310 (СЗ) 20000 м    3/0 верхняя 
[Ci fib]
+4.5 +2.2 85 +4  1032.6  0.1  758  300  +1         
09 14.10.18 020 (С) 20000 м    4/0 верхняя 
[Ci fib]
+17.6 +2.7 37 +18  1031.6  -0.1  758  287           
12 14.10.18 010 (С) 20000 м    6/0 верхняя 
[Ci fib]
+20 +1.5 29 +20  1029.7  -1.7  757  284           
15 14.10.18 010 (С) 20000 м    10/0 верхняя 
[Ci fib]
+17.2 +0 31 +18  1029.2  -0.7  757  287           
18 14.10.18 310 (СЗ) 10 км    5/0 верхняя 
[Ci fib]
+10.4 +0.9 52 +10  1029.8  0.2  757  294    +20.5       
21 14.10.18 300 (СЗ) 10 км    ясно 
+6.4 +1.7 72 +6  1029.9  -0.2  757  298           
00 15.10.18 340 (С) 10 км    ясно 
+4.7 +1.4 79 +4  1030.2  0.1  757  299           
03 15.10.18 300 (СЗ) 10 км    ясно 
+3.8 +1.8 87 +3  1029.9  -0.3  756  300           
06 15.10.18 330 (СЗ) 20000 м    6/0 верхняя 
[Ci fib]
+6.4 +3.8 83 +6  1030  0.3  757  297  +3.5         
09 15.10.18 050 (СВ) 20000 м    8/0 верхняя 
[Ci fib]
+18.2 +8.3 52 +19  1028.9  -0.2  756  284           
12 15.10.18 050 (СВ) 20000 м    8/0 верхняя 
[Ci fib]
+21 +6.3 38 +21  1027.7  -1  756  282           
15 15.10.18 050 (СВ) 20000 м    6/0 верхняя 
[Ci fib]
+18.9 +8.2 50 +20  1027.6  -0.3  755  283           
Время (UTC), дата Ветер
(°,м/с) 
Видим.   Явления Облачность Т
(°С)
Тd
(°С)
f(%) Тe
(°С)
Pmin
(гПа)
dP
(гПа)
Po
(мм)
O2
(г/м3)
Тmin Tmax R s Состояние
почвы

Для получения пояснительной информации подведите курсор к названию столбца.

ПОГОДА в Кировограде - архив

Всё, что Вы хотите узнать о погоде в Кировограде - удобно и подробно!

Выберите нужную дату (начиная с 1 января 2015* года) и нажмите кнопку "Найти".
Будут отображены архивные сводки погоды по пункту Кировоград, начиная с указанной даты.


Отображать данные в формате CSV (для использования в таблицах Excel)


Внимание! Наш архив погоды предназначен исключительно для личного некоммерческого использования в познавательных целях. Если Вам необходимы официальные справки о состоянии погоды (для производственных, юридических, коммерческих и т.п. целей), обращайтесь в органы Росгидромета.

*Примечание: данная дата относится к архиву по метеостанциям СССР (Россия, СНГ, Балтия).
Архив по метеостанциям Зарубежной Европы и Азии (кроме Китая) хранится 10 дней, по другим регионам земного шара (Китай, Африка, Америка, Австралия, Океания) - 1 день.

Кировоград - район местоположения метеостанции


Название, широта, долгота, высота метеостанции:
Кировоград 48.5°ш. 32.2°д. 171 м над ур. моря [Украина]

Дополнительная информация

В oтличие oт бoльшинства пoгoдных сайтoв мы публикуем пoдрoбную метеoинфoрмацию в детальнoм прoфессиoнальнoм фoрмате.

Характеристики температуры и влажнoсти вoздуха измеряются на высoте 2 м в тени вдали oт зданий и деревьев.
Скoрoсть ветра измеряется на высoте 10 м (на урoвне рoста челoвека скoрoсть ветра ниже в 1.5-2 раза). Если метеoстанция нахoдится в гoрoде или в лесу, тo скoрoсть ветра занижена на 2-4 м/с пo сравнению с oткрытым местoм. Скoрoсть ветра над акватoриями крупных рек и oзёр, а также на вершинах хoлмoв на 2-5 м/с выше, чем в oбычных услoвиях.
Атмoсфернoе давление в разных тoчках местнoсти мoжет значительнo oтличаться oт давления на метеoстанции, в зависимoсти oт услoвий рельефа (при пoдъёме на 10 м давление пoнижается примернo на 1 мм рт.ст.).